Location: Ernsee
(50.8780°N, 12.0389°E)
Time: 09:21:23
(UTC+00:00)

STARLINK-31 - Pass Details

Date: 20 January 2020
Orbit: 528 x 531 km, 53.0° (Epoch: 17 February)

Event Time Altitude Azimuth Distance (km) Brightness Sun altitude
Exits shadow 04:47:33 - 195° (SSW) 2,102 6.5 -21.0°
Reaches altitude 10° 04:48:36 10° 186° (S) 1,764 6.2 -20.9°
Drops below altitude 10° 04:54:38 10° 88° (E) 1,771 7.4 -19.9°
Enters shadow 05:53:42 -65° 244° (WSW) 12,165 10.3 -10.9°
Maximum altitude 06:30:13 74° 157° (SSE) 553 3.8 -5.5°
